Location: Gugi
(45.4667°N, 11.1000°E)
Time: 12:29:12
(UTC+00:00)

Cosmos 1151 Rocket - Visible Passes

Search period start: 18 February 2020 00:00
Search period end: 28 February 2020 00:00
Orbit: 593 x 615 km, 82.5° (Epoch: 17 February)

Date Brightness Start Highest point End Pass type
(mag) Time Alt. Az. Time Alt. Az. Time Alt. Az.
18 Feb 3.1 05:41:26 10° S 05:45:44 86° E 05:50:06 10° N visible
18 Feb 5.3 17:23:40 10° NNW 17:27:31 30° W 17:31:21 10° SSW visible
19 Feb 6.4 04:19:13 10° ESE 04:21:24 14° E 04:23:36 10° NE visible
19 Feb 6.2 17:36:53 10° NW 17:40:01 19° W 17:43:08 10° SW visible
20 Feb 5.7 04:30:32 10° SE 04:33:51 22° E 04:37:12 10° NE visible
20 Feb 6.6 17:50:45 10° WNW 17:52:27 12° W 17:54:09 10° WSW visible
21 Feb 4.8 04:42:27 10° SSE 04:46:21 35° E 04:50:19 10° NNE visible
22 Feb 3.7 04:54:42 10° S 04:58:56 58° E 05:03:13 10° NNE visible
23 Feb 3.0 05:07:15 10° S 05:11:34 85° W 05:15:57 10° N visible
24 Feb 6.1 03:44:39 10° ESE 03:47:11 15° E 03:49:43 10° NE visible
24 Feb 3.2 05:20:03 10° SSW 05:24:16 51° WNW 05:28:33 10° N visible
25 Feb 5.4 03:56:09 10° SE 03:59:38 24° E 04:03:09 10° NE visible
26 Feb 4.5 04:08:09 10° SSE 04:12:10 39° E 04:16:14 10° NNE visible
27 Feb 3.4 04:20:28 10° S 04:24:45 65° E 04:29:05 10° NNE visible
